TIME,DELAY(SENSOR),PRES,OXYGEN,RAWTEMP,T(OPTODE),TCPHASE,FLUOR,BETA(BETA700),BETA(BETA412),BETA(BETA440),CDOM,C(CSC),ED(ED411.90),ED(ED443.80),ED(ED489.40),ED(ED554.70),LU(LU412.20),LU(LU443.80),LU(LU489.40),LU(LU555.00),COMP,TILTX,TILTY,CHECK
1378422813,5805,922.9699707031250000,110.8162994384765600,386.1597900390625000,11.0241804122924800,43.1581687927246100,105,4130,49,50,54,9836,2146961993,2147517769,2147287670,2147489380,2147083648,2146933531,2147694500,2147123236,3184,-1,8,45797
1378426409,5802,1082.2299804687500000,126.9085998535156200,481.7579040527344000,8.0943536758422850,43.0903892517089840,107,4130,48,50,52,9839,2146962166,2147520493,2147295067,2147506157,2147084845,2146918875,2147713069,2147123136,2360,-1,8,41697
1378430009,5808,1118.8199462890625000,131.6188964843750000,513.6627807617188000,7.1049828529357910,43.1950416564941400,109,4130,47,50,54,9818,2146963858,2147516882,2147299931,2147512950,2147083062,2146923181,2147722066,2147124306,706,0,8,13352
1378433609,5806,1118.5799560546875000,128.1100006103515600,516.5493164062500000,7.0151381492614750,43.5535011291503900,108,4130,48,50,54,9815,2146963492,2147521344,2147301805,2147508982,2147083373,2146920402,2147724882,2147122459,3443,-1,8,37916
1378437209,5807,1121.1500244140625000,102.7221984863281200,514.8374023437500000,7.0684299468994140,45.9664802551269500,108,4130,48,50,55,9811,2146962934,2147523117,2147302162,2147510902,2147083776,2146921325,2147721664,2147125001,3581,-1,8,63588
1378440809,5810,1124.4200439453125000,92.5410995483398400,516.3817749023438000,7.0203518867492680,47.0674209594726560,108,4130,49,50,54,9810,2146965641,2147519634,2147303369,2147509494,2147081673,2146918582,2147725604,2147124315,96,-1,8,16893
1378444409,5805,1130.7800292968750000,150.3258056640625000,516.2503051757812000,7.0244460105896000,41.6719207763671900,109,4130,48,50,54,9805,2146965769,2147520018,2147301741,2147510436,2147081947,2146921078,2147725074,2147119360,824,-1,8,40211
1378448009,5808,1117.4599609375000000,156.5650939941406200,506.4266967773437500,7.3299708366394040,41.0128402709960940,109,4130,48,50,54,9801,2146963904,2147521307,2147298313,2147510080,2147086665,2146923666,2147722560,2147120091,873,-1,8,26424
1378451609,5802,1117.0200195312500000,118.3718032836914000,507.7128906250000000,7.2900071144104000,44.3075599670410160,110,4130,49,50,54,9798,2146964150,2147519030,2147299081,2147509613,2147086601,2146917750,2147721014,2147118893,3038,0,8,13718
1378455209,5806,1121.5400390625000000,97.3832092285156200,506.0866088867187500,7.3405370712280270,46.3920402526855500,109,4130,48,50,53,9798,2146964937,2147518107,2147299465,2147511131,2147086592,2146918729,2147720182,2147119277,3266,-1,8,49550
1378458809,5807,1106.2500000000000000,136.3009033203125000,496.8236083984375000,7.6280050277709960,42.5055999755859400,108,4130,47,50,54,9803,2146963154,2147521618,2147299977,2147507026,2147087140,2146924873,2147716086,2147117833,2853,-1,8,1494
1378462409,5805,1104.2800292968750000,74.5351715087890600,495.2843017578125000,7.6757187843322750,48.8540306091308600,110,4130,48,50,54,9802,2146962934,2147518582,2147299520,2147505773,2147088996,2146923081,2147719634,2147119579,3432,-1,8,1327
1378466009,5802,1104.9499511718750000,94.7048034667968800,495.3387145996094000,7.6740331649780270,46.5186500549316400,110,4130,49,50,53,9803,2146964205,2147517787,2147302116,2147503213,2147084443,2146926116,2147715684,2147118976,3351,-1,8,39429
1378469609,5805,1088.3599853515625000,141.0435028076172000,486.1115112304687500,7.9597411155700680,41.9208488464355500,110,4130,47,50,54,9824,2146962953,2147519606,2147297307,2147505435,2147082386,2146920603,2147714660,2147121965,3414,-1,8,61364
1378473209,5804,1088.4100341796875000,137.5762023925781200,485.2940063476562500,7.9850249290466310,42.2030601501464840,109,4130,49,50,54,9823,2146963355,2147519972,2147298432,2147506459,2147083830,2146923556,2147713024,2147123501,3558,-1,8,2089
1378476809,5808,1087.4899902343750000,132.2424926757812500,485.5625915527344000,7.9767179489135740,42.6740493774414060,109,4130,48,50,53,9824,2146964900,2147519561,2147296384,2147505828,2147085321,2146921938,2147713590,2147120438,160,-1,8,41578
1378480409,5804,1066.2299804687500000,129.6338958740234400,475.9097900390625000,8.2749938964843750,42.7475204467773440,111,4130,47,50,53,9825,2146964251,2147523136,2147298230,2147502025,2147085229,2146923017,2147714834,2147124114,382,-1,8,35436
1378484009,5808,1072.8100585937500000,81.7283782958984400,473.9122009277344000,8.3366470336914060,47.6883888244628900,111,4130,48,49,54,9826,2146962148,2147517504,2147297590,2147503771,2147084306,2146923520,2147714742,2147122194,458,-1,8,18184
1378487609,5806,1072.7299804687500000,109.6193008422851600,473.8171997070312500,8.3395795822143550,44.6242980957031250,110,4130,49,50,53,9824,2146966226,2147519744,2147300909,2147502400,2147085321,2146920411,2147713453,2147119570,2978,-1,8,64444
1378491209,5807,1061.4000244140625000,107.7602005004882800,464.4464111328125000,8.6284809112548830,44.6702995300293000,111,4130,49,50,54,9827,2146962496,2147518930,2147296603,2147500388,2147083794,2146926080,2147708781,2147125824,311,-1,8,57196
1378494809,5806,1053.8599853515625000,122.6741027832031200,464.4697875976562500,8.6277599334716800,43.2055397033691400,112,4130,48,50,54,9828,2146962861,2147517732,2147299830,2147504594,2147087899,2146928164,2147712502,2147119003,3364,-1,8,42923
1378498409,5806,1053.9499511718750000,81.5714797973632800,466.2666015625000000,8.5724067687988280,47.5986709594726560,111,4130,49,50,55,9827,2146965046,2147518162,2147294317,2147501046,2147088658,2146927625,2147715236,2147123501,670,-1,8,61246
1378502009,5807,1038.3800048828125000,105.2594985961914000,455.2181091308594000,8.9124956130981450,44.7865409851074200,111,4130,48,50,53,9828,2146962048,2147516013,2147293366,2147501366,2147086171,2146928301,2147707693,2147123894,566,-1,8,49035
1378505609,5804,1042.7800292968750000,130.1367034912109400,453.2775878906250000,8.9721565246582030,42.3344688415527340,111,4130,46,50,54,9831,2146965174,2147513654,2147295113,2147500324,2147085266,2146926857,2147710619,2147121069,2793,-1,8,48094
1378509209,5809,1034.7500000000000000,117.1644973754882800,455.1556091308594000,8.9144163131713870,43.5855598449707000,111,4130,48,50,53,9830,2146962752,2147515565,2147298084,2147500626,2147085558,2146928466,2147708068,2147125229,416,-1,8,51712
1378512809,5802,1012.6099853515625000,113.8883972167968800,441.9862976074219000,9.3189020156860350,43.7007789611816400,111,4130,48,50,52,9830,2146962176,2147517458,2147296557,2147498477,2147083940,2146925522,2147708772,2147122541,3217,-1,8,38949
1378516409,5806,1008.5900268554688000,90.7540283203125000,442.2196960449219000,9.3117418289184570,46.1837005615234400,111,4130,49,50,53,9835,2146963584,2147515657,2147294994,2147500928,2147085632,2146932507,2147707446,2147122002,3371,-1,8,37623
1378520009,5805,1010.8200073242188000,100.5827026367187500,441.0969848632812500,9.3461847305297850,45.0710182189941400,112,4130,49,50,54,9829,2146961892,2147516269,2147294418,2147499245,2147083501,2146931090,2147709248,2147122322,3510,-1,8,18482
1378523609,5806,1014.5499877929688000,124.2263031005859400,438.5418090820312500,9.4245452880859380,42.6442298889160160,111,4130,49,50,53,9835,2146964544,2147515620,2147293028,2147496393,2147086921,2146928539,2147707209,2147120795,3183,-1,8,16673
1378527209,5805,1014.4600219726562000,131.0794067382812500,437.0541992187500000,9.4701519012451170,41.9882583618164060,111,4130,48,50,54,9829,2146961865,2147518637,2147294765,2147495780,2147086016,2146925074,2147705600,2147122752,3249,-1,8,62734
1378530809,5806,1017.0000000000000000,136.8325042724609400,436.0610961914062500,9.5005912780761720,41.4611091613769500,112,4130,48,51,53,9833,2146962633,2147519716,2147292352,2147494189,2147082569,2146928347,2147706267,2147122249,3403,-1,8,9408
1378534409,5805,1020.1099853515625000,129.2395019531250000,435.5600891113281000,9.5159463882446290,42.1327285766601560,112,4130,47,49,54,9832,2146964809,2147514212,2147293842,2147497590,2147086262,2146927213,2147706889,2147119872,3409,-1,8,54665
1378538009,5809,1017.0000000000000000,135.8524017333984400,435.5798034667969000,9.5153398513793950,41.5376014709472660,111,4130,48,50,52,9824,2146963044,2147517248,2147291510,2147500004,2147082331,2146928374,2147706541,2147123940,295,-1,8,27513
1378541609,5803,1012.2999877929688000,98.1707077026367200,437.2861022949219000,9.4630432128906250,45.2780685424804700,113,4130,49,50,52,9823,2146967021,2147518509,2147291008,2147496292,2147083300,2146930523,2147707346,2147122422,3445,-1,8,46509
1378545209,5802,1013.3400268554688000,135.4710998535156200,437.8414001464844000,9.4460182189941400,41.6093101501464840,112,4130,48,50,53,9814,2146964123,2147519890,2147294125,2147498212,2147085001,2146930157,2147706779,2147121225,3243,-1,8,17063
1378548809,5804,1012.8499755859375000,126.8357009887695300,438.2257080078125000,9.4342365264892580,42.3957214355468750,113,4130,48,50,53,9821,2146964315,2147520996,2147294774,2147499072,2147081609,2146932781,2147709632,2147122130,3450,-1,8,27524
1378552409,5803,1016.8200073242188000,132.3103027343750000,437.5458984375000000,9.4550781250000000,41.8852500915527340,114,4130,47,49,53,9815,2146964160,2147520640,2147295808,2147496429,2147083968,2146928576,2147706048,2147121334,3426,-1,8,51406
1378556009,5805,1010.8699951171875000,128.3948059082031200,438.9946899414062500,9.4106588363647460,42.2651100158691400,112,4130,48,50,53,9814,2146965476,2147518738,2147295405,2147495954,2147083977,2146924406,2147706349,2147121152,976,-1,8,34072
1378559609,5806,1010.7800292968750000,122.7370986938476600,439.7647094726562500,9.3870439529418950,42.8050117492675800,113,4130,48,50,53,9815,2146964818,2147518043,2147294080,2147497334,2147085421,2146931419,2147707913,2147119350,3356,-1,8,64116
1378560656,5809,1009.1900024414062000,106.1914978027343800,439.8421936035156000,9.3846683502197270,44.4544105529785160,113,4130,48,50,54,9811,2146963830,2147517540,2147293366,2147496310,2147084434,2146928512,2147705371,2147125403,56,-1,8,20089
